Location: Forli
(44.2227°N, 12.0407°E)
Time: 15:59:48
(UTC+01:00)

Tiangong - Pass Details

Date: 19 February 2026
Orbit: 382 x 391 km, 41.5° (Epoch: 5 March)

Event Time Altitude Azimuth Distance (km) Brightness Sun altitude
Rises 18:52:21 0° 271° (W) 2,258 3.8 -12.5°
Reaches altitude 10° 18:54:32 10° 261° (W) 1,401 2.2 -12.9°
Maximum altitude 18:57:24 32° 196° (SSW) 682 -0.7 -13.4°
Enters shadow 18:59:26 16° 139° (SE) 1,103 -0.2 -13.7°
